Date String (YYYY-MM-DD hh:mm:ss) UTC,Instrument flags,absolute air pressure of the measurement (hPa),sample flow rate (lpm),inlet stack bypass flow (lpm),air temperature of the measurement (°C),ambient temperature measured by the external sensor (°C),aerosol sample conditioner tube jacket temperature (°C),OPC LED temperature (°C),internal box temperature (°C),relative humidity of the measurement (%),span deviation,mass concentration of particles derived from Lorenz-Mie calculation of OPC scattering (μg/m³),mass concentration of particles derived from Lorenz-Mie calculation of OPC scattering (μg/m³),mass concentration of particles derived from Lorenz-Mie calculation of OPC scattering (μg/m³)
DateTimeUTC,F1_M11,P_M11,Q1_M11,Q2_M11,T1_M11,T2_M11,T3_M11,T4_M11,T5_M11,U1_M11,ZSPAN_M11,X0_M11,X2_M11,X1_M11
2024-01-12 20:00:00,SystemResetWarning,0814.5,4.99,000.00,018.8,017.2,000.0,027.3,020.0,7.2,0000.0,0007.15,0001.06,0000.47
2024-01-12 20:01:00,SystemResetWarning,0814.5,5.01,000.00,018.8,017.2,000.0,027.3,020.0,7.3,0000.0,0007.25,0001.07,0000.46
2024-01-12 20:02:00,SystemResetWarning,0814.4,5.01,000.00,018.7,017.1,000.0,027.3,020.0,7.4,0000.0,0006.65,0001.06,0000.44
2024-01-12 20:03:00,SystemResetWarning,0814.4,4.99,000.00,018.7,017.1,000.0,027.3,020.0,7.3,0000.0,0005.30,0001.04,0000.43
2024-01-12 20:04:00,SystemResetWarning,0814.5,5.00,000.00,018.7,017.1,000.0,027.3,020.0,7.4,0000.0,0005.67,0001.02,0000.43
2024-01-12 20:05:00,SystemResetWarning,0814.5,5.02,000.00,018.7,017.1,000.0,027.3,020.0,7.4,0000.0,0005.07,0000.93,0000.42
2024-01-12 20:06:00,SystemResetWarning,0814.5,5.01,000.00,018.7,017.0,000.0,027.3,020.0,7.5,0000.0,0005.33,0000.89,0000.41
2024-01-12 20:07:00,SystemResetWarning,0814.4,4.99,000.00,018.7,017.0,000.0,027.3,020.0,7.6,0000.0,0005.41,0000.86,0000.40
2024-01-12 20:08:00,SystemResetWarning,0814.3,5.00,000.00,018.7,017.2,000.0,027.3,020.1,7.6,0000.0,0005.37,0000.84,0000.39
2024-01-12 20:09:00,SystemResetWarning,0814.3,5.01,000.00,018.8,018.1,000.0,027.2,020.6,7.5,0000.0,0004.81,0000.80,0000.41
2024-01-12 20:10:00,SystemResetWarning,0814.3,4.99,000.00,018.9,019.0,000.0,027.2,020.9,7.3,0000.0,0003.56,0000.79,0000.41
2024-01-12 20:11:00,SystemResetWarning,0814.3,4.99,000.00,019.0,019.0,000.0,027.2,020.6,7.2,0000.0,0003.56,0000.80,0000.41
2024-01-12 20:12:00,SystemResetWarning,0814.3,5.01,000.00,019.0,018.8,000.0,027.2,020.2,7.1,0000.0,0003.51,0000.79,0000.40
2024-01-12 20:13:00,SystemResetWarning,0814.3,5.01,000.00,018.9,018.5,000.0,027.2,020.1,7.2,0000.0,0003.54,0000.79,0000.41
2024-01-12 20:14:00,SystemResetWarning,0814.3,4.99,000.00,018.9,018.2,000.0,027.2,020.0,7.3,0000.0,0002.92,0000.78,0000.41
2024-01-12 20:15:00,SystemResetWarning,0814.3,5.00,000.00,018.9,018.0,000.0,027.2,020.0,7.3,0000.0,0002.46,0000.78,0000.41
2024-01-12 20:16:00,SystemResetWarning,0814.3,5.00,000.00,018.8,017.9,000.0,027.2,020.0,7.3,0000.0,0002.44,0000.84,0000.43
2024-01-12 20:17:00,SystemResetWarning,0814.2,5.00,000.00,018.8,017.7,000.0,027.2,020.0,7.2,0000.0,0002.08,0000.89,0000.43
2024-01-12 20:18:00,SystemResetWarning,0814.2,5.00,000.00,018.8,017.6,000.0,027.2,020.0,7.2,0000.0,0002.03,0000.91,0000.44
2024-01-12 20:19:00,SystemResetWarning,0814.3,5.00,000.00,018.8,017.5,000.0,027.2,020.0,7.3,0000.0,0002.06,0000.90,0000.44
2024-01-12 20:20:00,SystemResetWarning,0814.3,5.00,000.00,018.8,017.4,000.0,027.2,020.0,7.2,0000.0,0001.99,0000.89,0000.44
2024-01-12 20:21:00,SystemResetWarning,0814.3,5.00,000.00,018.8,017.3,000.0,027.3,020.0,7.2,0000.0,0002.01,0000.91,0000.44
2024-01-12 20:22:00,SystemResetWarning,0814.3,5.01,000.00,018.8,017.2,000.0,027.2,020.0,7.3,0000.0,0002.04,0000.93,0000.43
2024-01-12 20:23:00,SystemResetWarning,0814.3,5.00,000.00,018.7,017.2,000.0,027.3,020.0,7.4,0000.0,0002.38,0000.94,0000.43
2024-01-12 20:24:00,SystemResetWarning,0814.3,5.01,000.00,018.7,017.2,000.0,027.3,020.0,7.3,0000.0,0003.02,0001.00,0000.43
2024-01-12 20:25:00,SystemResetWarning,0814.2,5.00,000.00,018.7,017.2,000.0,027.3,020.0,7.3,0000.0,0003.06,0001.03,0000.42
2024-01-12 20:26:00,SystemResetWarning,0814.3,5.00,000.00,018.7,017.2,000.0,027.2,020.0,7.2,0000.0,0003.17,0001.06,0000.42
2024-01-12 20:27:00,SystemResetWarning,0814.3,4.99,000.00,018.7,017.1,000.0,027.3,020.0,7.2,0000.0,0003.10,0001.00,0000.41
2024-01-12 20:28:00,SystemResetWarning,0814.4,5.00,000.00,018.7,017.1,000.0,027.3,020.1,7.1,0000.0,0002.93,0000.96,0000.40
2024-01-12 20:29:00,SystemResetWarning,0814.4,5.00,000.00,018.8,017.8,000.0,027.2,020.5,7.1,0000.0,0002.94,0000.93,0000.41
2024-01-12 20:30:00,SystemResetWarning,0814.4,5.00,000.00,019.0,018.8,000.0,027.2,020.9,7.1,0000.0,0002.75,0000.90,0000.40
2024-01-12 20:31:00,SystemResetWarning,0814.4,4.98,000.00,019.1,019.0,000.0,027.2,020.7,7.1,0000.0,0002.92,0000.90,0000.40
2024-01-12 20:32:00,SystemResetWarning,0814.4,5.00,000.00,019.0,018.8,000.0,027.2,020.4,7.1,0000.0,0004.17,0000.89,0000.40
2024-01-12 20:33:00,SystemResetWarning,0814.4,4.99,000.00,019.0,018.6,000.0,027.2,020.1,7.2,0000.0,0004.35,0000.92,0000.41
2024-01-12 20:34:00,SystemResetWarning,0814.3,5.00,000.00,019.0,018.3,000.0,027.2,020.0,7.2,0000.0,0004.14,0000.93,0000.41
2024-01-12 20:35:00,SystemResetWarning,0814.4,5.00,000.00,018.9,018.1,000.0,027.2,020.0,7.2,0000.0,0003.57,0000.89,0000.42
2024-01-12 20:36:00,SystemResetWarning,0814.4,5.00,000.00,018.9,017.9,000.0,027.2,020.0,7.1,0000.0,0003.68,0000.91,0000.44
2024-01-12 20:37:00,SystemResetWarning,0814.4,5.00,000.00,018.9,017.8,000.0,027.2,020.0,7.2,0000.0,0003.55,0000.87,0000.44
2024-01-12 20:38:00,SystemResetWarning,0814.3,5.00,000.00,018.9,017.6,000.0,027.2,020.0,7.2,0000.0,0003.68,0000.88,0000.45
2024-01-12 20:39:00,SystemResetWarning,0814.3,5.00,000.00,018.8,017.5,000.0,027.2,020.0,7.2,0000.0,0003.67,0000.87,0000.45
2024-01-12 20:40:00,SystemResetWarning,0814.3,5.01,000.00,018.8,017.4,000.0,027.2,020.0,7.2,0000.0,0003.82,0000.91,0000.45
2024-01-12 20:41:00,SystemResetWarning,0814.3,5.00,000.00,018.8,017.4,000.0,027.3,020.0,7.3,0000.0,0004.08,0000.91,0000.45
2024-01-12 20:42:00,SystemResetWarning,0814.2,5.01,000.00,018.8,017.3,000.0,027.3,020.0,7.3,0000.0,0005.05,0000.91,0000.44
2024-01-12 20:43:00,SystemResetWarning,0814.2,5.00,000.00,018.8,017.3,000.0,027.3,020.0,7.3,0000.0,0003.78,0000.88,0000.44
2024-01-12 20:44:00,SystemResetWarning,0814.3,5.00,000.00,018.8,017.2,000.0,027.3,020.0,7.2,0000.0,0003.61,0000.84,0000.43
2024-01-12 20:45:00,SystemResetWarning,0814.2,4.99,000.00,018.8,017.2,000.0,027.3,020.0,7.2,0000.0,0003.34,0000.79,0000.43
2024-01-12 20:46:00,SystemResetWarning,0814.2,4.99,000.00,018.8,017.1,000.0,027.2,020.0,7.2,0000.0,0003.41,0000.83,0000.43
2024-01-12 20:47:00,SystemResetWarning,0814.2,4.99,000.00,018.8,017.1,000.0,027.2,020.0,7.3,0000.0,0003.50,0000.79,0000.42
2024-01-12 20:48:00,SystemResetWarning,0814.2,5.01,000.00,018.8,017.1,000.0,027.2,020.0,7.4,0000.0,0003.55,0000.79,0000.41
2024-01-12 20:49:00,SystemResetWarning,0814.3,5.01,000.00,018.8,017.2,000.0,027.2,020.1,7.4,0000.0,0003.71,0000.81,0000.41
2024-01-12 20:50:00,SystemResetWarning,0814.3,5.00,000.00,018.8,017.9,000.0,027.2,020.6,7.4,0000.0,0003.70,0000.83,0000.41
2024-01-12 20:51:00,SystemResetWarning,0814.3,4.99,000.00,019.0,018.8,000.0,027.2,020.9,7.4,0000.0,0003.49,0000.79,0000.40
2024-01-12 20:52:00,SystemResetWarning,0814.1,5.00,000.00,019.1,018.9,000.0,027.2,020.6,7.4,0000.0,0003.36,0000.75,0000.39
2024-01-12 20:53:00,SystemResetWarning,0814.2,5.00,000.00,019.0,018.8,000.0,027.2,020.4,7.4,0000.0,0002.14,0000.76,0000.40
2024-01-12 20:54:00,SystemResetWarning,0814.1,5.00,000.00,019.0,018.6,000.0,027.2,020.2,7.5,0000.0,0001.96,0000.77,0000.40
2024-01-12 20:55:00,SystemResetWarning,0814.0,5.00,000.00,019.0,018.3,000.0,027.2,020.1,7.4,0000.0,0001.91,0000.75,0000.40
2024-01-12 20:56:00,SystemResetWarning,0814.0,5.00,000.00,018.9,018.1,000.0,027.2,020.0,7.4,0000.0,0001.93,0000.74,0000.40
2024-01-12 20:57:00,SystemResetWarning,0814.1,5.00,000.00,018.9,018.0,000.0,027.2,020.0,7.4,0000.0,0001.88,0000.73,0000.39
2024-01-12 20:58:00,SystemResetWarning,0814.1,5.00,000.00,018.9,017.8,000.0,027.2,020.0,7.5,0000.0,0001.77,0000.72,0000.38
2024-01-12 20:59:00,SystemResetWarning,0814.1,5.00,000.00,018.8,017.7,000.0,027.2,020.0,7.4,0000.0,0001.80,0000.72,0000.38
